| time (UTC) | temp F | wind direction | speed MPH | gust MPH | rain 1hr in | rain 24hr in | rain mn in | humidity % | barometer mb |
| 20260505153101 | 46 | 11 | 0.0 | 1.0 | 0.00 | 0.63 | 0.10 | 97 | 1013.5 |
| 20260505151553 | 46 | 10 | 0.0 | 0.0 | 0.00 | 0.63 | 0.10 | 97 | 1013.7 |
| 20260505124538 | 45 | 30 | 0.0 | 0.0 | 0.02 | 0.66 | 0.10 | 96 | 1013.1 |
| 20260505123038 | 45 | 30 | 0.0 | 0.0 | 0.02 | 0.66 | 0.10 | 96 | 1012.9 |
| 20260505121538 | 45 | 30 | 0.0 | 0.0 | 0.02 | 0.65 | 0.09 | 96 | 1013.0 |
| 20260505120038 | 45 | 30 | 0.0 | 0.0 | 0.02 | 0.64 | 0.08 | 96 | 1012.9 |
| 20260505114541 | 45 | 30 | 0.0 | 1.0 | 0.02 | 0.64 | 0.08 | 96 | 1012.8 |
| 20260505113034 | 45 | 30 | 0.0 | 1.0 | 0.03 | 0.64 | 0.08 | 96 | 1012.7 |
| 20260505111538 | 45 | 30 | 0.0 | 0.0 | 0.04 | 0.63 | 0.07 | 96 | 1012.8 |
| 20260505101532 | 45 | 30 | 0.0 | 0.0 | 0.01 | 0.59 | 0.03 | 96 | 1013.0 |
| 20260505100040 | 45 | 30 | 0.0 | 0.0 | 0.01 | 0.59 | 0.03 | 96 | 1013.1 |
| 20260505094528 | 45 | 30 | 0.0 | 0.0 | 0.00 | 0.57 | 0.02 | 96 | 1013.3 |
| 20260505093027 | 45 | 30 | 0.0 | 0.0 | 0.00 | 0.57 | 0.02 | 96 | 1013.1 |
| 20260505091526 | 45 | 30 | 0.0 | 1.0 | 0.00 | 0.57 | 0.02 | 96 | 1013.3 |
| 20260505090044 | 45 | 30 | 0.0 | 0.0 | 0.00 | 0.57 | 0.02 | 96 | 1013.2 |
| 20260505084533 | 45 | 30 | 0.0 | 0.0 | 0.00 | 0.57 | 0.02 | 96 | 1013.3 |
| 20260505083035 | 45 | 30 | 0.0 | 0.0 | 0.00 | 0.57 | 0.02 | 96 | 1013.6 |
| 20260505081536 | 45 | 30 | 0.0 | 0.0 | 0.01 | 0.57 | 0.02 | 96 | 1013.6 |
| 20260505080036 | 45 | 30 | 0.0 | 0.0 | 0.03 | 0.57 | 0.02 | 96 | 1013.6 |
| 20260505074522 | 45 | 30 | 0.0 | 1.0 | 0.06 | 0.57 | 0.02 | 96 | 1013.5 |
| 20260505073018 | 45 | 30 | 0.0 | 1.0 | 0.10 | 0.57 | 0.02 | 95 | 1013.5 |
| 20260505071524 | 45 | 31 | 0.0 | 0.0 | 0.11 | 0.56 | 0.01 | 95 | 1013.4 |
| 20260505070115 | 45 | 31 | 0.0 | 0.0 | 0.12 | 0.56 | 0.00 | 95 | 1013.3 |
| 20260505064514 | 46 | 31 | 0.0 | 0.0 | 0.10 | 0.53 | 0.53 | 95 | 1013.4 |
| 20260505063016 | 46 | 31 | 0.0 | 0.0 | 0.06 | 0.48 | 0.48 | 95 | 1013.5 |
| 20260505061524 | 46 | 31 | 0.0 | 0.0 | 0.04 | 0.46 | 0.46 | 95 | 1013.6 |
| 20260505060013 | 46 | 31 | 0.0 | 0.0 | 0.02 | 0.44 | 0.44 | 95 | 1013.4 |
| 20260505054521 | 46 | 18 | 0.0 | 1.0 | 0.02 | 0.43 | 0.43 | 95 | 1013.4 |
| 20260505053013 | 46 | 17 | 0.0 | 1.0 | 0.01 | 0.42 | 0.42 | 95 | 1013.5 |
| 20260505051512 | 46 | 19 | 0.0 | 1.0 | 0.02 | 0.42 | 0.42 | 95 | 1013.7 |
| 20260505041510 | 47 | 18 | 0.0 | 0.0 | 0.02 | 0.41 | 0.41 | 95 | 1013.7 |
| 20260505040011 | 47 | 17 | 0.0 | 0.0 | 0.01 | 0.40 | 0.40 | 95 | 1013.4 |
| 20260505034512 | 47 | 17 | 0.0 | 1.0 | 0.00 | 0.39 | 0.39 | 94 | 1013.3 |
| 20260505033016 | 47 | 18 | 0.0 | 0.0 | 0.00 | 0.39 | 0.39 | 94 | 1013.3 |
| 20260505031507 | 47 | 18 | 0.0 | 0.0 | 0.00 | 0.39 | 0.39 | 94 | 1013.1 |
| 20260505030006 | 47 | 17 | 0.0 | 0.0 | 0.00 | 0.39 | 0.39 | 93 | 1013.1 |
| 20260505024518 | 48 | 18 | 0.0 | 0.0 | 0.00 | 0.39 | 0.39 | 93 | 1013.0 |
| 20260505023008 | 48 | 17 | 0.0 | 0.0 | 0.00 | 0.39 | 0.39 | 93 | 1013.1 |
| 20260505021523 | 48 | 18 | 0.0 | 0.0 | 0.00 | 0.39 | 0.39 | 93 | 1013.1 |
| 20260505020007 | 48 | 18 | 0.0 | 0.0 | 0.00 | 0.39 | 0.39 | 92 | 1013.3 |
| 20260505014506 | 48 | 18 | 0.0 | 0.0 | 0.00 | 0.39 | 0.39 | 92 | 1013.3 |
| 20260505013006 | 48 | 17 | 0.0 | 0.0 | 0.00 | 0.39 | 0.39 | 92 | 1013.3 |
| 20260505011507 | 48 | 18 | 0.0 | 0.0 | 0.00 | 0.39 | 0.39 | 92 | 1013.4 |
| 20260505010005 | 48 | 18 | 0.0 | 0.0 | 0.00 | 0.39 | 0.39 | 91 | 1013.4 |
| 20260505004511 | 49 | 17 | 0.0 | 0.0 | 0.00 | 0.39 | 0.39 | 91 | 1013.5 |
| 20260505003004 | 48 | 17 | 0.0 | 1.0 | 0.00 | 0.39 | 0.39 | 91 | 1013.6 |
| 20260505001504 | 49 | 8 | 0.0 | 0.0 | 0.00 | 0.39 | 0.39 | 92 | 1013.4 |
| 20260505000002 | 49 | 18 | 0.0 | 0.0 | 0.01 | 0.39 | 0.39 | 93 | 1013.4 |
| 20260504234501 | 48 | 18 | 0.0 | 1.0 | 0.01 | 0.39 | 0.39 | 93 | 1013.6 |
| 20260504233102 | 49 | 18 | 0.0 | 1.0 | 0.02 | 0.39 | 0.39 | 94 | 1013.6 |
| 20260504233001 | 49 | 17 | 0.0 | 1.0 | 0.02 | 0.39 | 0.39 | 94 | 1013.5 |
| 20260504231500 | 48 | 15 | 0.0 | 1.0 | 0.02 | 0.39 | 0.39 | 94 | 1013.4 |
| 20260504230103 | 48 | 16 | 0.0 | 1.0 | 0.03 | 0.38 | 0.38 | 94 | 1013.5 |
| 20260504224559 | 47 | 16 | 0.0 | 1.0 | 0.06 | 0.38 | 0.38 | 94 | 1013.5 |
| 20260504223104 | 47 | 15 | 0.0 | 1.0 | 0.07 | 0.37 | 0.37 | 93 | 1013.8 |
| 20260504223001 | 47 | 15 | 0.0 | 1.0 | 0.07 | 0.37 | 0.37 | 93 | 1013.8 |
| 20260504221608 | 47 | 16 | 0.0 | 1.0 | 0.10 | 0.37 | 0.37 | 92 | 1013.9 |
| 20260504220136 | 47 | 15 | 0.0 | 0.0 | 0.15 | 0.36 | 0.36 | 92 | 1013.9 |
| 20260504214600 | 47 | 15 | 0.0 | 0.0 | 0.16 | 0.33 | 0.33 | 92 | 1014.1 |
| 20260504213123 | 48 | 15 | 0.0 | 1.0 | 0.17 | 0.30 | 0.30 | 92 | 1013.9 |
| 20260504211558 | 48 | 16 | 0.0 | 1.0 | 0.16 | 0.27 | 0.27 | 91 | 1013.9 |
| 20260504204609 | 49 | 287 | 0.0 | 1.0 | 0.07 | 0.18 | 0.18 | 91 | 1013.8 |
| 20260504203053 | 49 | 263 | 0.0 | 1.0 | 0.03 | 0.14 | 0.14 | 90 | 1013.7 |
| 20260504201552 | 49 | 266 | 0.0 | 0.0 | 0.01 | 0.12 | 0.12 | 90 | 1013.5 |
| 20260504194550 | 50 | 266 | 0.0 | 1.0 | 0.00 | 0.11 | 0.11 | 89 | 1013.3 |
| 20260504193050 | 50 | 242 | 0.0 | 1.0 | 0.00 | 0.11 | 0.11 | 91 | 1013.4 |
| 20260504191549 | 50 | 353 | 0.0 | 0.0 | 0.00 | 0.11 | 0.11 | 92 | 1013.3 |
| 20260504190047 | 49 | 352 | 0.0 | 0.0 | 0.00 | 0.11 | 0.11 | 93 | 1013.2 |
| 20260504184545 | 49 | 352 | 0.0 | 0.0 | 0.01 | 0.11 | 0.11 | 94 | 1013.3 |
| 20260504183046 | 48 | 351 | 0.0 | 0.0 | 0.02 | 0.11 | 0.11 | 94 | 1013.3 |
| 20260504181547 | 48 | 352 | 0.0 | 1.0 | 0.03 | 0.11 | 0.11 | 94 | 1013.3 |
| 20260504180042 | 47 | 352 | 0.0 | 1.0 | 0.03 | 0.11 | 0.11 | 94 | 1013.4 |
| 20260504174539 | 47 | 20 | 0.0 | 1.0 | 0.02 | 0.10 | 0.10 | 93 | 1013.1 |
| 20260504173036 | 47 | 20 | 0.0 | 0.0 | 0.02 | 0.09 | 0.09 | 93 | 1013.1 |
| 20260504171535 | 47 | 20 | 0.0 | 1.0 | 0.02 | 0.09 | 0.09 | 93 | 1013.0 |